Flag for Brazil Weather past 2 weeks in Tabatinga, Amazonas, Brazil

Now
77 °F

Partly sunny.


Feels Like: 78 °F
Forecast: 75 / 86 °F
Wind: No wind

Location: Leticia / Vasquez Cobo

Current Time: May 4, 2015 at 7:10:39 AM

Latest Report: May 4, 2015 at 6:00 AM


Visibility: N/A

Pressure: 29.85 "Hg

Humidity: 94%

Dew point: 75 °F

Location of TabatingaLocation

Historic Weather in Tabatinga — Graph

°F

Tabatinga temperature yesterday

Maximum temperature yesterday: 88 °F (at 11:00 AM)
Minimum temperature yesterday: 75 °F (at 3:00 AM)
Average temperature yesterday: 81 °F

Past Weeks' High & Low Weather Summary

 TemperatureHumidityPressure
High90 °F (Apr 23, 4:00 PM)100% (Apr 19, 12:00 PM)32.25 "Hg (Apr 19, 12:00 PM)
Low72 °F (Apr 20, 8:00 PM)66% (Apr 29, 2:00 PM)29.70 "Hg (May 3, 4:00 PM)
Average79 °F90%29.86 "Hg
* Reported Apr 19 4:00 AM — May 4 4:00 AM, Tabatinga, Weather by CustomWeather, © 2015

Note: Actual official high and low records may vary slightly from our data, if they occured in-between our weather recording intervals... More about our weather records

Advertising

Tabatinga weather history for previous 24 hours

 ConditionsComfort  
Time TempWeatherWind HumidityBarometerVisibility
4:00 AM
Mon, May 4
77 °FPassing clouds.No wind100%29.81 "HgN/A
3:00 AM77 °FPassing clouds.No wind94%29.79 "HgN/A
2:00 AM77 °FPassing clouds.No wind94%29.81 "HgN/A
1:00 AM77 °FPassing clouds.No wind94%29.83 "HgN/A
12:00 AM77 °FPartly cloudy.No wind94%29.83 "HgN/A
10:00 PM
Sun, May 3
77 °FPassing clouds.No wind100%29.85 "HgN/A
9:00 PM79 °FPartly cloudy.No wind94%29.82 "HgN/A
8:00 PM79 °FPartly cloudy.No wind94%29.78 "HgN/A
7:00 PM79 °FPartly cloudy.No wind94%29.77 "HgN/A
6:00 PM79 °FThunderstorms. Partly cloudy.No wind94%29.74 "Hg5 mi
5:00 PM82 °FThunderstorms. Broken clouds.3 mph89%29.73 "Hg4 mi
4:00 PM86 °FBroken clouds.3 mph79%29.70 "HgN/A
3:00 PM88 °FBroken clouds.3 mph79%29.72 "HgN/A
2:00 PM88 °FBroken clouds.3 mph79%29.75 "HgN/A
1:00 PM88 °FBroken clouds.No wind79%29.81 "HgN/A
12:00 PM88 °FBroken clouds.No wind75%29.83 "HgN/A
11:00 AM88 °FBroken clouds.3 mph79%29.86 "HgN/A
10:00 AM84 °FPartly sunny.2 mph84%29.87 "HgN/A
9:00 AM82 °FPartly sunny.3 mph89%29.87 "HgN/A
8:00 AM81 °FScattered clouds.No wind89%29.85 "HgN/A
7:00 AM77 °FScattered clouds.No wind94%29.83 "HgN/A
Weather by CustomWeather, © 2015

See weather overviewHow to use our weather pages